Weather History for KBLU - September, 2014

Change the Weather History Date:

Saturday, September 20, 2014

  Actual Average Record
Temperature  
Mean Temperature 66 °F -  
Max Temperature 73 °F 68 °F 89 °F (1974)
Min Temperature 59 °F 50 °F 33 °F (2004)
Cooling Degree Days 1    
Growing Degree Days 16 (Base 50)    
Moisture  
Dew Point 40 °F    
Average Humidity 35    
Maximum Humidity 55    
Minimum Humidity 24    
Precipitation  
Precipitation 0.00 in - - ()
Sea Level Pressure  
Sea Level Pressure 29.96 in    
Wind  
Wind Speed 4 mph (South)    
Max Wind Speed 8 mph    
Max Gust Speed -    
Visibility 5 miles    
Events      
Averages and records for this station are not official NWS values.
T = Trace of Precipitation, MM = Missing Value Source: NWS Daily Summary

Daily Weather History Graph

Daily Weather History Graph

Search for Another Location

Airport or City:

Trip Planner

Search our weather history database for the weather conditions in past years. The results will help you decide how hot, cold, wet, or windy it might be!

Date:

Astronomy

Sep. 20, 2014 Rise Set
Actual Time 6:48 AM PDT 7:02 PM PDT
Civil Twilight 6:21 AM PDT 7:29 PM PDT
Nautical Twilight 5:50 AM PDT 8:01 PM PDT
Astronomical Twilight 5:18 AM PDT 8:32 PM PDT
Moon 3:33 AM PDT (9/20) 5:08 PM PDT (9/20)
Length of Visible Light 13h 07m
Length of Day
12h 14m
Waning Crescent, 11% of the Moon is Illuminated
Sep 20
Waning Crescent
Sep 23
New
Oct 1
First Quarter
Oct 8
Full
Oct 15
Last Quarter

Hourly Weather History & Observations

Time (PDT) Temp. Dew Point Humidity Pressure Visibility Wind Dir Wind Speed Gust Speed Precip Events Conditions
12:52 AM 68.0 °F 35.1 °F 30% 29.79 in 10.0 mi NE 3.5 mph - N/A   Clear
1:52 AM 69.1 °F 34.0 °F 27% 29.80 in 10.0 mi NE 4.6 mph - N/A   Clear
2:52 AM 69.1 °F 34.0 °F 27% 29.79 in 10.0 mi NNE 3.5 mph - N/A   Clear
3:52 AM 59.0 °F 43.0 °F 55% 29.85 in 5.0 mi Variable 3.5 mph - N/A   Haze
4:52 AM 61.0 °F 42.1 °F 50% 29.84 in 3.0 mi Calm Calm - N/A   Haze
5:18 AM 62.1 °F 42.1 °F 48% 30.10 in 2.5 mi Calm Calm - N/A   Haze
5:44 AM 64.0 °F 39.0 °F 40% 30.10 in 4.0 mi NE 3.5 mph - N/A   Haze
5:52 AM 66.9 °F 35.1 °F 31% 29.82 in 8.0 mi Variable 6.9 mph - N/A   Clear
6:52 AM 64.0 °F 36.0 °F 35% 29.86 in 9.0 mi Calm Calm - N/A   Clear
7:52 AM 66.9 °F 35.1 °F 31% 29.86 in 10.0 mi Calm Calm - N/A   Clear
8:52 AM 68.0 °F 37.0 °F 32% 29.85 in 9.0 mi West 3.5 mph - N/A   Clear
9:52 AM 73.9 °F 35.1 °F 24% 29.83 in 10.0 mi NNW 3.5 mph - N/A   Clear
10:52 AM 73.0 °F 37.9 °F 28% 29.84 in 6.0 mi West 3.5 mph - N/A   Haze
11:52 AM 72.0 °F 41.0 °F 33% 29.84 in 4.0 mi SW 8.1 mph - N/A   Haze
12:12 PM 72.0 °F 37.0 °F 28% 30.14 in 2.0 mi SW 8.1 mph - N/A   Haze
12:31 PM 73.0 °F 42.1 °F 33% 30.14 in 2.0 mi Variable 5.8 mph - N/A   Haze
12:42 PM 72.0 °F 43.0 °F 35% 30.14 in 1.8 mi SSW 8.1 mph - N/A   Haze
12:52 PM 72.0 °F 44.1 °F 37% 29.85 in 2.0 mi Variable 4.6 mph - N/A   Haze
1:13 PM 70.0 °F 44.1 °F 39% 30.14 in 3.0 mi Variable 3.5 mph - N/A   Haze
1:23 PM 71.1 °F 45.0 °F 39% 30.14 in 2.5 mi South 5.8 mph - N/A   Haze
1:52 PM 70.0 °F 44.1 °F 39% 29.85 in 2.5 mi Variable 4.6 mph - N/A   Haze
2:21 PM 71.1 °F 43.0 °F 36% 30.14 in 3.0 mi SSE 5.8 mph - N/A   Haze
2:52 PM 71.1 °F 41.0 °F 34% 29.84 in 3.0 mi South 5.8 mph - N/A   Haze
3:18 PM 70.0 °F 43.0 °F 38% 30.13 in 2.5 mi SSE 4.6 mph - N/A   Haze
3:35 PM 71.1 °F 41.0 °F 34% 30.13 in 3.0 mi SSE 3.5 mph - N/A   Haze
3:43 PM 71.1 °F 41.0 °F 34% 30.13 in 2.5 mi SSE 4.6 mph - N/A   Haze
3:52 PM 71.1 °F 42.1 °F 35% 29.89 in 2.5 mi Variable 3.5 mph - N/A   Haze